Date String (YYYY-MM-DD hh:mm:ss) UTC,Instrument flags,absolute air pressure of the measurement (hPa),sample flow rate (lpm),inlet stack bypass flow (lpm),air temperature of the measurement (°C),ambient temperature measured by the external sensor (°C),aerosol sample conditioner tube jacket temperature (°C),OPC LED temperature (°C),internal box temperature (°C),relative humidity of the measurement (%),span deviation,mass concentration of particles derived from Lorenz-Mie calculation of OPC scattering (μg/m³),mass concentration of particles derived from Lorenz-Mie calculation of OPC scattering (μg/m³),mass concentration of particles derived from Lorenz-Mie calculation of OPC scattering (μg/m³)
DateTimeUTC,F1_M11,P_M11,Q1_M11,Q2_M11,T1_M11,T2_M11,T3_M11,T4_M11,T5_M11,U1_M11,ZSPAN_M11,X0_M11,X2_M11,X1_M11
2023-09-08 22:00:00,SystemResetWarning,0833.2,5.00,000.00,027.8,024.7,000.0,035.8,029.2,14.4,0000.0,0011.44,0004.67,0003.94
2023-09-08 22:01:00,SystemResetWarning,0833.2,5.02,000.00,027.8,024.5,000.0,035.8,029.2,14.2,0000.0,0011.81,0004.67,0003.93
2023-09-08 22:02:00,SystemResetWarning,0833.2,4.99,000.00,027.7,024.8,000.0,035.8,029.2,14.9,0000.0,0012.26,0004.61,0003.91
2023-09-08 22:03:00,SystemResetWarning,0833.2,4.99,000.00,027.7,025.2,000.0,035.8,029.2,14.9,0000.0,0011.69,0004.62,0003.90
2023-09-08 22:04:00,SystemResetWarning,0833.2,5.00,000.00,027.7,025.6,000.0,035.9,029.3,14.9,0000.3,0011.62,0004.65,0003.90
2023-09-08 22:05:00,SystemResetWarning,0833.2,5.01,000.00,027.8,026.1,000.0,035.9,029.4,14.8,0000.6,0010.93,0004.61,0003.89
2023-09-08 22:06:00,SystemResetWarning,0833.2,5.00,000.00,027.8,026.4,000.0,035.9,029.5,14.9,0001.1,0011.27,0004.58,0003.87
2023-09-08 22:07:00,SystemResetWarning,0833.2,5.00,000.00,027.9,026.6,000.0,036.0,029.6,14.3,0000.8,0012.58,0004.59,0003.85
2023-09-08 22:08:00,SystemResetWarning,0833.3,4.97,000.00,027.9,025.4,000.0,035.9,029.4,14.2,0000.3,0012.61,0004.60,0003.84
2023-09-08 22:09:00,SystemResetWarning,0833.2,5.02,000.00,027.8,024.4,000.0,035.8,029.2,14.1,0000.0,0013.02,0004.63,0003.84
2023-09-08 22:10:00,SystemResetWarning,0833.3,5.01,000.00,027.8,024.6,000.0,035.8,029.3,13.9,0000.0,0014.32,0004.61,0003.83
2023-09-08 22:11:00,SystemResetWarning,0833.2,5.00,000.00,027.7,025.0,000.0,035.8,029.2,14.1,0000.4,0014.03,0004.63,0003.81
2023-09-08 22:12:00,SystemResetWarning,0833.2,5.00,000.00,027.7,025.4,000.0,035.9,029.3,14.3,0000.8,0013.46,0004.63,0003.81
2023-09-08 22:13:00,SystemResetWarning,0833.3,5.01,000.00,027.8,025.9,000.0,035.9,029.4,14.4,0001.4,0012.73,0004.61,0003.79
2023-09-08 22:14:00,SystemResetWarning,0833.2,4.99,000.00,027.8,026.3,000.0,035.9,029.5,14.3,0000.9,0012.46,0004.60,0003.78
2023-09-08 22:15:00,SystemResetWarning,0833.3,5.00,000.00,027.9,026.6,000.0,036.0,029.6,14.3,0000.0,0013.04,0004.57,0003.77
2023-09-08 22:16:00,SystemResetWarning,0833.3,5.00,000.00,027.9,026.8,000.0,036.0,029.7,14.4,0000.7,0013.00,0004.55,0003.76
2023-09-08 22:17:00,SystemResetWarning,0833.2,4.98,000.00,027.9,025.7,000.0,036.0,029.4,14.8,0000.2,0012.58,0004.54,0003.75
2023-09-08 22:18:00,SystemResetWarning,0833.2,5.01,000.00,027.8,024.5,000.0,035.9,029.2,15.1,0000.5,0011.60,0004.54,0003.75
2023-09-08 22:19:00,SystemResetWarning,0833.3,5.01,000.00,027.8,024.6,000.0,035.9,029.2,15.1,0001.0,0011.14,0004.53,0003.76
2023-09-08 22:20:00,SystemResetWarning,0833.3,5.00,000.00,027.7,025.0,000.0,035.9,029.2,15.3,0001.4,0011.54,0004.48,0003.75
2023-09-08 22:21:00,SystemResetWarning,0833.2,5.00,000.00,027.7,025.4,000.0,035.9,029.3,15.4,0000.9,0011.41,0004.52,0003.74
2023-09-08 22:22:00,SystemResetWarning,0833.2,4.99,000.00,027.8,025.9,000.0,035.9,029.4,14.8,0001.2,0011.66,0004.51,0003.72
2023-09-08 22:23:00,SystemResetWarning,0833.3,5.00,000.00,027.8,026.3,000.0,036.0,029.5,14.5,0000.0,0012.28,0004.49,0003.70
2023-09-08 22:24:00,SystemResetWarning,0833.3,5.00,000.00,027.9,026.6,000.0,036.0,029.6,14.1,0000.0,0012.64,0004.49,0003.69
2023-09-08 22:25:00,SystemResetWarning,0833.3,4.99,000.00,027.9,026.3,000.0,036.0,029.6,14.4,0000.0,0013.38,0004.48,0003.69
2023-09-08 22:26:00,SystemResetWarning,0833.2,4.99,000.00,027.9,024.9,000.0,035.9,029.2,14.8,0001.2,0012.83,0004.44,0003.67
2023-09-08 22:27:00,SystemResetWarning,0833.3,5.01,000.00,027.8,024.5,000.0,035.9,029.2,14.7,0000.0,0012.90,0004.41,0003.65
2023-09-08 22:28:00,SystemResetWarning,0833.3,5.01,000.00,027.8,024.8,000.0,035.9,029.2,15.1,0000.0,0012.82,0004.37,0003.64
2023-09-08 22:29:00,SystemResetWarning,0833.3,4.99,000.00,027.7,025.2,000.0,035.9,029.2,14.7,0000.0,0012.58,0004.29,0003.61
2023-09-08 22:30:00,SystemResetWarning,0833.3,5.00,000.00,027.7,025.6,000.0,035.9,029.3,14.5,0000.0,0012.53,0004.30,0003.57
2023-09-08 22:31:00,SystemResetWarning,0833.3,5.00,000.00,027.8,026.1,000.0,035.9,029.4,14.6,0000.0,0012.38,0004.33,0003.54
2023-09-08 22:32:00,SystemResetWarning,0833.2,5.00,000.00,027.8,026.4,000.0,036.0,029.5,14.6,0000.0,0011.43,0004.31,0003.52
2023-09-08 22:33:00,SystemResetWarning,0833.3,5.00,000.00,027.9,026.7,000.0,036.0,029.6,15.2,0000.0,0010.67,0004.27,0003.51
2023-09-08 22:34:00,SystemResetWarning,0833.2,4.98,000.00,027.9,025.7,000.0,036.0,029.4,14.7,0001.0,0010.51,0004.22,0003.48
2023-09-08 22:35:00,SystemResetWarning,0833.2,5.01,000.00,027.8,024.5,000.0,035.9,029.2,14.6,0000.9,0010.38,0004.21,0003.45
2023-09-08 22:36:00,SystemResetWarning,0833.2,5.01,000.00,027.8,024.6,000.0,035.9,029.3,15.0,0000.0,0009.71,0004.16,0003.40
2023-09-08 22:37:00,SystemResetWarning,0833.2,4.98,000.00,027.7,024.9,000.0,035.9,029.2,14.5,0000.0,0010.37,0004.12,0003.37
2023-09-08 22:38:00,SystemResetWarning,0833.2,5.00,000.00,027.7,025.3,000.0,035.9,029.2,14.4,0000.0,0009.95,0004.11,0003.34
2023-09-08 22:39:00,SystemResetWarning,0833.2,5.02,000.00,027.8,025.8,000.0,035.9,029.4,14.7,0000.0,0009.95,0004.10,0003.32
2023-09-08 22:40:00,SystemResetWarning,0833.2,5.00,000.00,027.8,026.2,000.0,036.0,029.5,14.4,0000.0,0009.92,0004.10,0003.31
2023-09-08 22:41:00,SystemResetWarning,0833.2,5.00,000.00,027.9,026.6,000.0,036.0,029.6,15.4,0000.0,0009.79,0004.04,0003.30
2023-09-08 22:42:00,SystemResetWarning,0833.2,4.99,000.00,027.9,026.4,000.0,036.0,029.6,14.6,0000.0,0009.33,0003.95,0003.28
2023-09-08 22:43:00,SystemResetWarning,0833.2,4.99,000.00,027.9,025.0,000.0,035.9,029.3,14.8,0000.0,0009.12,0003.89,0003.24
2023-09-08 22:44:00,SystemResetWarning,0833.2,5.01,000.00,027.8,024.4,000.0,035.9,029.2,14.0,0000.0,0009.55,0003.87,0003.22
2023-09-08 22:45:00,SystemResetWarning,0833.2,5.02,000.00,027.8,024.7,000.0,035.9,029.3,13.7,0000.0,0009.56,0003.88,0003.21
2023-09-08 22:46:00,SystemResetWarning,0833.2,5.00,000.00,027.7,025.1,000.0,035.9,029.2,13.7,0000.0,0009.22,0003.85,0003.19
2023-09-08 22:47:00,SystemResetWarning,0833.2,5.00,000.00,027.7,025.5,000.0,035.9,029.3,14.1,0000.0,0009.77,0003.88,0003.20
2023-09-08 22:48:00,SystemResetWarning,0833.2,5.00,000.00,027.8,026.0,000.0,035.9,029.4,14.7,0000.0,0009.01,0003.87,0003.19
2023-09-08 22:49:00,SystemResetWarning,0833.2,5.00,000.00,027.8,026.4,000.0,036.0,029.5,14.0,0000.0,0009.08,0003.87,0003.19
2023-09-08 22:50:00,SystemResetWarning,0833.2,5.00,000.00,027.9,026.7,000.0,036.0,029.6,14.0,0000.0,0009.64,0003.86,0003.17
2023-09-08 22:51:00,SystemResetWarning,0833.2,4.98,000.00,027.9,025.7,000.0,036.0,029.4,14.5,0000.0,0010.13,0003.88,0003.15
2023-09-08 22:52:00,SystemResetWarning,0833.2,5.01,000.00,027.8,024.4,000.0,035.9,029.2,14.7,0000.0,0010.66,0003.90,0003.14
2023-09-08 22:53:00,SystemResetWarning,0833.2,5.01,000.00,027.8,024.5,000.0,035.9,029.2,14.5,0000.0,0010.86,0003.93,0003.15
2023-09-08 22:54:00,SystemResetWarning,0833.2,4.98,000.00,027.7,024.8,000.0,035.9,029.2,14.2,0000.0,0011.55,0003.91,0003.14
2023-09-08 22:55:00,SystemResetWarning,0833.2,5.00,000.00,027.7,025.2,000.0,035.9,029.2,14.1,0000.0,0011.19,0003.90,0003.14
2023-09-08 22:56:00,SystemResetWarning,0833.2,5.00,000.00,027.7,025.7,000.0,035.9,029.3,14.0,0000.0,0011.56,0003.88,0003.14
2023-09-08 22:57:00,SystemResetWarning,0833.2,5.00,000.00,027.8,026.1,000.0,035.9,029.5,14.0,0000.0,0012.69,0003.90,0003.15
2023-09-08 22:58:00,SystemResetWarning,0833.2,4.99,000.00,027.8,026.5,000.0,036.0,029.6,14.3,0000.0,0012.04,0003.87,0003.14
2023-09-08 22:59:00,SystemResetWarning,0833.2,4.98,000.00,027.9,026.4,000.0,036.0,029.6,14.3,0000.0,0011.87,0003.89,0003.14
